Regional Weather Roundup
Issued by NWS Green Bay, WI

Home | Current Version | Previous Version | Text Only | Print | Product List | Glossary On
Versions: 1 2 3 4 5 6 7 8 9 10 11 12 13 14 15 16 17 18 19 20 21 22 23 24 25 26 27 28 29 30 31 32 33 34 35 36 37 38 39 40 41 42 43 44 45 46 47 48 49 50
744
ASUS43 KGRB 092011
RWRGRB

NORTH-CENTRAL AND NORTHEAST WISCONSIN REGIONAL WEATHER ROUNDUP
NATIONAL WEATHER SERVICE GREEN BAY WI
200 PM CST TUE FEB 09 2016

WIZ005-009-010>012-018-019-092100-
NORTH CENTRAL WISCONSIN

CITY           SKY/WX    TMP DP  RH WIND       PRES   REMARKS
IRONWOOD       CLOUDY     9   5  85 NW14G21   29.92S WCI  -8
MANITOWISH WTR LGT SNOW  10   3  74 N14G20    29.87R WCI  -6
ARBOR VITAE    LGT SNOW  13   6  74 N17G24    29.85S WCI  -4
EAGLE RIVER    LGT SNOW  12   2  65 N21G28    29.82S WCI  -7
LAND O LAKES   LGT SNOW  10   4  75 N17G30    29.83S WCI  -7
RHINELANDER    LGT SNOW  12   3  67 N17G28    29.82S WCI  -5
PHILLIPS       CLOUDY     9   0  65 NW13G23   29.90S WCI  -7
ANTIGO         CLOUDY    13   6  72 N18G26    29.80S HAZE    WCI  -4
TOMAHAWK       LGT SNOW  13   5  70 NW12G18   29.86R WCI  -1
MERRILL        CLOUDY    15   4  62 N13       29.85S WCI   1
$$

WIZ013-073-092100-
NORTHEAST WISCONSIN

CITY           SKY/WX    TMP DP  RH WIND       PRES   REMARKS
IRON MOUNTAIN  LGT SNOW  13   4  67 N21G28    29.79R WCI  -5
MARINETTE      CLOUDY    18   5  57 N16G25    29.79S WCI   3
OCONTO         CLOUDY    18   6  58 NW12G20   29.82R WCI   6
$$

WIZ017-030-035>037-045-092100-
CENTRAL WISCONSIN

CITY           SKY/WX    TMP DP  RH WIND       PRES   REMARKS
MEDFORD        CLOUDY    11   3  70 N20G29    29.87S HAZE    WCI  -7
WAUSAU         CLOUDY    16   5  62 NW13G24   29.83S WCI   2
MOSINEE        CLOUDY    16   7  67 NW20G26   29.85S WCI  -1
MARSHFIELD     CLOUDY    13   3  64 NW26G33   29.87S HAZE    WCI  -7
WISC RAPIDS    CLOUDY    15   4  61 NW23G29   29.89S WCI  -3
STEVENS POINT  CLOUDY    15   5  64 NW14G24   29.85S WCI   0
WAUPACA        CLOUDY    21   7  53 NW14      29.84S WCI   8
SHAWANO        CLOUDY    20   6  53 NW14G21   29.83S WCI   7
CLINTONVILLE   CLOUDY    19   7  58 NW12G22   29.83S WCI   7
WAUTOMA        CLOUDY    17   6  62 NW16G22   29.86F WCI   2
$$

WIZ038-039-048-051-092100-
FOX VALLEY

CITY           SKY/WX    TMP DP  RH WIND       PRES   REMARKS
NWS GREEN BAY  FLURRIES  19   8  62 NW20G25   29.82R WCI   3
APPLETON       PTSUNNY   18   5  57 NW15      29.80S WCI   3
OSHKOSH        CLOUDY    18   7  62 NW15      29.82S WCI   4
FOND DU LAC    LGT SNOW  16   8  71 NW17      29.83S WCI   0
$$

WIZ022-050-052-092100-
EAST CENTRAL WISCONSIN

CITY           SKY/WX    TMP DP  RH WIND       PRES   REMARKS
EPHRAIM        CLOUDY    19   8  64 NW16G22   29.75S WCI   4
STURGEON BAY   CLOUDY    18   7  62 NW18      29.80R WCI   2
MANITOWOC      FLURRIES  19   9  65 NW14      29.81R WCI   6
SHEBOYGAN      CLOUDY    18   7  62 NW16      29.80S WCI   3
$$

LMZ563-521-522-541>543-092100-
LAKESHORE

STATION/POSITION TIME  TEMP    WIND        PRES    VSBY  WAVE
                       AIR SEA DIR/SP/G                  HT/PER
                 (UTC) (F)     (DEG/KT/KT) (MB)    (MI)  (FT/S)
SHEBOYGAN LKSHOR 2000   18     330/ 19/ 22 1010.7R
KEWAUNEE LKSHORE 1900   18     340/ 15/ 21 1007.9F
ALGOMA MARINA    1911          320/ 14/ 20   N/A
CHAMBERS ISLAND  1900   19     310/ 15/ 25 1008.5R
MENOMINEE LKSHOR 1900   17     310/ 17     1007.9F
$$




USA.gov is the U.S. government's official web portal to all federal, state and local government web resources and services.